Location: Bois-Bernard
(50.3815°N, 2.9115°E)
Time: 12:36:17
(UTC+00:00)

Daily predictions for brighter satellites

Satellite Brightness Start Highest point End
(mag) Time Altitude Azimuth Time Altitude Azimuth Time Altitude Azimuth
Cosmos 1607 4.1 17:05:16 10° NW 17:11:38 86° SW 17:17:50 10° SE
Lacrosse 4 Rocket 3.1 17:11:06 10° N 17:14:06 18° NE 17:17:08 10° E
SL-16 R/B 3.9 17:11:53 10° ESE 17:14:09 12° E 17:16:26 10° ENE
Cosmos 2344 4.4 17:07:24 10° NW 17:15:21 47° NNE 17:25:54 10° E
ATLAS 3B R/B 2.7 17:10:26 10° SW 17:17:00 83° SE 17:23:55 10° NE
Cosmos 2082 3.9 17:11:25 10° NNW 17:17:04 79° WSW 17:22:40 10° SSE
SMAP 3.4 17:14:01 10° S 17:18:40 73° WSW 17:23:21 10° NNW
Cosmos 1470 3.3 17:15:51 10° SSW 17:19:48 64° WNW 17:23:45 10° N
Radarsat Rocket 4.5 17:13:34 10° SSE 17:19:57 82° WSW 17:27:16 10° NNW
Cosmos 1703 3.6 17:21:34 10° N 17:25:21 44° ENE 17:29:06 10° SSE
SL-8 Rocket 4.5 17:20:57 10° SSW 17:27:14 68° WNW 17:33:33 10° N
ATLAS 5 CENTAUR R/B 2.2 17:24:28 10° S 17:27:55 31° ESE 17:31:43 10° ENE
Cosmos 1821 Rocket 4.2 17:22:25 10° SSE 17:28:36 54° E 17:34:46 10° NNE
Cosmos 2322 Rocket 3.8 17:27:08 10° ESE 17:29:18 12° E 17:31:28 10° ENE
USA 267 4.2 17:23:13 10° SSE 17:29:33 51° SW 17:35:55 10° WNW
Cosmos 2218 Rocket 4.3 17:23:21 10° SSW 17:29:39 77° W 17:36:04 10° N
Cosmos 1300 4.2 17:27:52 10° SE 17:30:20 17° E 17:32:49 10° NE
SKYMED 2 4.1 17:27:21 10° NNE 17:31:24 36° E 17:35:25 10° SSE
CENTAUR R/B 4.1 17:31:24 10° WNW 17:37:24 32° N 17:44:22 10° NE
SL-19 R/B 4.3 17:34:07 10° NNE 17:39:53 63° ESE 17:45:23 10° S
MOS 1-B Rocket 4.4 17:34:53 10° NNE 17:41:28 44° E 17:47:10 10° SSE
Cosmos 405 Rocket 2.8 17:38:16 10° N 17:42:11 58° ENE 17:46:08 10° SSE
YAOGAN 1 3.3 17:38:26 10° SE 17:42:16 32° ENE 17:46:07 10° N
Cosmos 1455 Rocket 3.4 17:39:39 10° SSE 17:43:50 43° E 17:48:04 10° NNE
Cosmos 724 4.3 17:39:05 10° NW 17:45:07 80° NE 17:50:58 10° SE
H-2A R/B 3.4 17:43:31 10° NE 17:46:08 16° E 17:48:47 10° SE
Cosmos 1934 Rocket 4.3 17:41:22 10° SSE 17:47:00 40° E 17:52:36 10° NNE
CZ-4B R/B 3.3 17:42:13 10° SSE 17:47:53 89° WSW 17:53:36 10° NNW
Cosmos 2150 Rocket 4.2 17:43:07 10° SSW 17:48:34 80° WNW 17:53:57 10° NNE
Cosmos 1758 4.3 17:47:13 10° SSW 17:51:07 50° WNW 17:55:00 10° N
SL-08 RB Rocket 4.0 17:47:40 10° SE 17:52:00 45° ENE 17:56:25 10° N
Cosmos 1328 4.0 17:48:32 10° N 17:52:28 49° ENE 17:56:23 10° SSE
Okean O Rocket 1.5 17:48:09 10° SSE 17:52:29 82° ENE 17:56:52 10° NNW
H-2A R/B 2.7 17:50:06 10° SE 17:54:16 49° ENE 17:58:19 10° N
CZ-4C R/B 3.2 17:54:07 10° NNE 17:57:25 43° E 18:00:37 10° S
Cosmos 1544 Rocket 4.1 17:53:37 10° SSE 17:57:42 36° E 18:01:48 10° NNE
Cosmos 1953 2.3 17:53:56 10° S 17:57:58 82° E 18:02:04 10° NNE
Cosmos 2227 4.2 17:52:59 10° NNW 17:58:48 77° ENE 18:04:33 10° SE
Cosmos 2369 3.9 17:54:37 10° SSW 18:00:17 78° WNW 18:06:02 10° NNE
Cosmos 1174 3.6 17:58:15 10° SW 18:01:23 59° NW 18:04:16 11° NNE
Cosmos 2263 Rocket 2.2 17:56:08 10° NNW 18:01:44 84° WSW 18:07:18 10° SSE
ARGOS 3.1 17:57:37 10° SSE 18:03:01 80° ENE 18:08:28 10° NNW
Cosmos 2123 Rocket 4.0 17:56:51 10° N 18:03:11 67° ENE 18:09:27 10° SSE
Cosmos 1980 Rocket 2.2 17:59:03 10° SSW 18:04:44 89° WNW 18:10:29 10° NNE
CZ-4 R/B 4.5 18:03:40 10° SSE 18:07:48 85° WSW 18:11:58 10° NNW
H-2A R/B 2.7 18:02:29 10° S 18:07:49 63° WSW 18:13:16 10° NNW
CZ-4 R/B 1.5 18:04:33 10° SSE 18:08:28 53° ENE 18:12:28 10° N
Okean-O 3.3 18:05:16 14° SE 18:08:32 34° ENE 18:12:34 10° N
Okean 1-7 Rocket 3.5 18:04:30 10° N 18:08:54 67° ENE 18:13:17 10° SSE
Cosmos 614 Rocket 4.5 18:09:13 10° NNW 18:13:56 37° NE 18:16:32 22° ESE
Iridium 4 Rocket 3.1 18:12:57 10° N 18:17:26 78° E 18:22:17 10° S
Cosmos 389 Rocket 4.3 18:15:20 10° SW 18:18:27 33° WNW 18:21:36 10° N
Cosmos 1892 3.6 18:15:48 10° N 18:18:55 28° ENE 18:18:55 28° ENE
Cosmos 1602 Rocket 3.9 18:15:15 10° N 18:19:26 42° ENE 18:22:15 18° SE
COSMO-SKYMED 1 2.7 18:15:15 10° NNE 18:19:36 78° WNW 18:23:57 10° SSW
CZ-2C R/B 2.7 18:15:01 10° NNE 18:20:41 84° ESE 18:26:15 10° SSW
Cosmos 1697 Rocket 3.9 18:16:26 10° WSW 18:21:48 42° NW 18:27:11 10° NNE
Cosmos 332 Rocket 4.5 18:20:18 10° SSE 18:24:36 31° ESE 18:25:52 27° ENE
Landsat 5 3.8 18:20:42 10° NNE 18:25:04 76° WNW 18:29:31 10° SSW
CSL-04 Rocket 4.0 18:22:16 17° SE 18:26:19 45° ENE 18:31:36 10° N
X-37B 1.8 18:26:07 10° WSW 18:28:59 30° S 18:29:33 28° SSE
OBJECT-B 3.2 18:37:34 12° NNE 18:37:34 12° NNE 18:37:59 10° N
Cosmos 1844 Rocket 2.9 18:30:33 10° NNW 18:35:58 47° NE 18:38:02 33° ESE
USA 215 3.7 18:31:33 18° ENE 18:36:24 57° NNW 18:42:46 10° W
NOSS 2-3 (E) 4.1 18:33:29 10° S 18:37:01 36° SE 18:37:01 36° SE
USA 229 DEB 4.2 18:36:05 10° S 18:41:35 32° ESE 18:42:06 31° ESE
USA 229 4.2 18:36:13 10° S 18:41:41 31° ESE 18:42:07 31° ESE
Cosmos 2278 4.1 18:36:51 10° SW 18:42:30 65° WNW 18:48:12 10° NNE
IRAS Rocket 4.1 18:37:46 10° NNE 18:43:23 84° ESE 18:48:55 10° SSW
Cosmos 1758 Rocket 3.5 18:44:02 10° N 18:48:17 54° ENE 18:48:34 53° E
Cosmos 2278 Rocket 3.8 18:45:04 10° N 18:48:54 18° NNE 18:49:28 18° NE
IRS-P2 Rocket 4.5 18:46:23 22° SSE 18:49:47 70° ENE 18:54:59 10° NNW
Cosmos 2251 Rocket 3.4 18:45:41 10° NNW 18:50:57 67° ENE 18:52:48 39° SE
Ariane Rocket 4.4 18:52:40 23° NE 18:52:40 23° NE 18:55:43 10° N
Cosmos 371 Rocket 3.2 18:47:36 10° SSW 18:52:28 86° ESE 18:57:24 10° NNE
Lacrosse 4 Rocket 1.3 18:49:06 10° NNW 18:53:24 84° NE 18:54:19 55° SE
IRS-1C Rocket 4.1 18:49:05 10° SSE 18:54:21 81° WSW 18:59:40 10° NNW
Cosmos 1605 Rocket 3.9 18:48:12 10° S 18:54:27 79° E 19:00:50 10° NNE
Cosmos 1626 Rocket 4.0 18:51:45 10° NNW 18:56:01 61° W 19:00:16 10° S
SJ-6B 4.4 18:57:57 23° NNE 18:57:57 23° NNE 18:59:40 10° N
SL-16 R/B 2.1 18:51:35 10° SSW 18:57:13 71° ESE 19:01:52 16° NE
Cosmos 1447 Rocket 4.3 18:55:10 10° N 19:01:21 82° ENE 19:07:12 12° SSE
NOSS 3-1 (A) 3.9 18:58:49 10° S 19:02:24 34° SSE 19:02:24 34° SSE
Cosmos 1300 3.8 19:01:57 10° SSW 19:05:37 45° WNW 19:09:18 10° N
Cosmos 407 Rocket 3.8 19:02:24 10° NNW 19:07:25 47° NE 19:07:25 47° NE
Tiangong 3.9 19:06:19 10° SW 19:06:42 12° SSW 19:06:42 12° SSW
ATLAS 3B R/B 3.8 19:02:14 10° W 19:08:23 38° NNW 19:14:03 13° NE
Cosmos 1153 Rocket 4.4 19:02:26 10° S 19:08:45 67° E 19:15:07 10° NNE
Cosmos 2322 Rocket 2.0 19:06:44 10° SSW 19:12:18 71° ESE 19:14:13 42° NE
ATLAS 5 CENTAUR R/B 2.5 19:08:29 10° WSW 19:12:20 43° NW 19:13:58 30° NNE
Meteor 2-10 Rocket 3.5 19:08:09 10° S 19:13:47 90° S 19:19:13 10° NNE
SL-8 R/B 3.8 19:09:43 10° WSW 19:14:17 61° S 19:14:17 61° S
Cosmos 1844 3.6 19:09:32 10° NNW 19:15:22 74° ENE 19:16:17 61° ESE
Cosmos 1825 4.2 19:12:43 10° N 19:13:54 19° N 19:13:54 19° N
YAOGAN 1 4.3 19:14:27 10° SSW 19:18:20 32° W 19:22:15 10° NNW
Cosmos 1408 3.9 19:16:02 10° NNW 19:18:11 33° NNW 19:18:11 33° NNW
Cosmos 1140 Rocket 3.8 19:14:31 10° NNW 19:19:00 51° NE 19:19:00 51° NE
H-2A R/B 2.4 19:18:25 10° N 19:22:29 59° WNW 19:26:33 10° SSW
NOSS 2-3 (D) 4.4 19:20:16 10° SW 19:22:51 39° SSW 19:22:51 39° SSW
Cosmos 2360 Rocket 3.5 19:19:19 10° S 19:21:41 26° S 19:21:41 26° S
Orbus 7S? 4.1 19:20:15 10° WNW 19:28:32 67° SW 19:28:54 64° SSW
NOSS 3-1 (C) 3.2 19:24:53 10° SW 19:30:16 89° NW 19:31:34 57° NE
CENTAUR R/B 4.0 19:23:36 10° NW 19:30:17 34° NNE 19:32:46 29° NE
Cosmos 2344 4.3 19:21:45 10° NW 19:30:44 76° SW 19:38:08 28° SSE
CZ-4 R/B 4.2 19:41:05 10° SW 19:43:47 17° W 19:46:31 10° NW
Okean-O 4.3 19:42:51 20° SW 19:45:02 31° W 19:49:01 10° NNW
Cosmos 1980 Rocket 4.3 19:45:05 10° W 19:49:33 23° NW 19:54:04 10° NNE
Resurs 01 Rocket 4.0 20:00:29 16° N 20:00:29 16° N 20:01:23 10° N
Cosmos 2346 Rocket 4.5 19:54:25 10° N 20:00:20 78° NW 20:00:20 78° NW
Cosmos 1943 Rocket 4.3 20:01:11 10° N 20:03:29 16° NNE 20:03:29 16° NNE
Cosmos 2100 Rocket 4.3 20:14:15 65° NW 20:14:15 65° NW 20:19:55 10° N
USA 215 3.7 20:18:54 51° N 20:18:54 51° N 20:25:11 10° WNW
Cosmos 1844 Rocket 3.9 20:14:43 10° NW 20:19:43 35° WSW 20:19:43 35° WSW
Lacrosse 4 Rocket 4.3 20:29:12 10° WNW 20:30:38 13° W 20:30:38 13° W
USA 229 DEB 4.5 20:25:33 10° SW 20:29:37 42° WSW 20:29:37 42° WSW
USA 229 4.5 20:25:39 10° SW 20:29:39 41° WSW 20:29:39 41° WSW
Cosmos 2278 Rocket 3.8 20:28:31 10° NNW 20:31:18 29° NNW 20:31:18 29° NNW
SL-16 R/B 4.0 20:37:02 10° WSW 20:41:52 28° NW 20:43:48 23° N
Cosmos 2322 Rocket 4.0 20:52:07 10° W 20:56:08 27° WNW 20:56:08 27° WNW
ATLAS 3B R/B 4.2 20:55:18 10° NW 21:01:02 27° N 21:01:17 27° N
CENTAUR R/B 3.8 21:14:36 10° NW 21:19:55 46° NNW 21:19:55 46° NNW
